Dewpoint
51 51 51 51 52 52 52 51 51 51 52 52 53 52 52 53 54 54 55 55 56 55 55 55 55 55 48 39 40 46 49 48 49 47 45 43 41 41 38 38 38 40 40 39 38 34 36
51 51 52 51 50 51 51 51 52 51 52 52 52 52 52 53 53 54 54 55 55 54 54 54 55 55 45 36 44 47 47 47 47 46 44 44 42 43 40 39 39 40 39 41 42 40 37
51 51 51 51 51 51 51 52 52 52 52 52 52 52 52 52 53 54 54 54 54 54 54 54 56 49 40 40 44 47 46 47 48 46 45 45 44 43 42 37 40 40 38 40 40 39 38
50 50 51 51 51 50 51 52 51 52 52 52 52 52 51 52 53 54 54 54 54 54 54 55 55 45 39 44 46 44 46 45 46 47 46 47 46 44 42 42 40 39 39 35 34 38 36
50 50 50 50 50 51 51 51 51 52 52 52 52 51 52 52 53 54 54 54 54 54 54 53 49 43 35 47 43 44 47 45 45 45 46 46 45 42 43 38 36 37 32 34 33 35 34
50 50 49 50 50 51 51 51 51 52 52 52 52 53 53 53 54 54 53 52 50 52 51 48 40 37 39 33 39 44 45 45 44 43 43 43 42 38 36 37 30 33 31 31 33 34 33
49 49 50 50 49 50 50 51 51 51 51 52 52 53 54 54 54 53 49 44 42 41 38 33 28 27 28 40 44 43 44 43 44 43 37 39 35 33 33 34 35 31 30 29 30 35 28
49 49 50 50 51 51 52 52 52 52 52 52 52 52 53 53 53 50 48 36 41 42 31 29 29 30 33 37 33 40 43 39 37 35 35 36 34 34 33 33 32 30 29 29 29 31 30
49 50 51 52 52 52 52 53 52 52 52 52 52 52 53 53 50 46 37 40 44 44 36 29 30 27 31 36 31 32 40 35 34 33 29 29 33 34 33 32 31 27 29 29 29 31 28
50 51 52 52 52 53 53 54 54 53 53 53 52 52 53 52 45 39 38 43 44 43 33 29 23 29 33 34 31 34 39 35 30 30 27 29 35 34 34 34 34 27 35 28 32 30 26
54 55 54 53 53 52 53 54 54 54 54 53 52 52 52 51 44 37 40 43 43 40 6 24 22 31 29 28 27 34 39 35 28 26 25 25 27 34 32 34 33 35 35 29 26 28 29
54 54 53 53 53 53 53 53 53 54 54 53 53 52 50 47 45 43 44 44 41 34 6 16 23 26 25 28 25 31 33 37 31 27 25 24 29 29 29 31 34 35 31 28 26 27 26
50 50 50 50 50 52 52 52 53 54 54 53 53 52 49 44 42 45 44 41 35 19 20 16 20 22 22 21 22 23 24 25 24 21 22 22 23 29 29 28 32 31 29 25 24 26 23
46 46 46 47 48 48 48 49 49 50 52 53 53 51 47 43 45 45 44 38 18 22 12 23 22 23 21 20 20 21 21 20 23 23 22 20 22 24 27 27 26 26 28 27 22 20 22
42 42 43 44 44 45 46 47 47 49 50 50 52 45 45 46 45 44 41 30 22 20 21 21 20 21 18 19 17 15 17 18 19 22 21 18 18 23 25 25 26 25 25 27 23 24 20
43 42 42 42 42 43 43 45 45 47 48 49 49 44 40 45 44 43 35 27 23 22 24 24 15 15 13 13 14 15 11 19 19 23 26 22 16 18 25 26 27 25 25 23 24 19 16
40 40 40 40 40 40 41 43 44 43 47 49 49 37 44 44 43 38 28 32 27 26 25 22 19 17 16 14 15 16 12 20 22 24 25 24 21 22 21 22 23 24 21 22 20 19 16
36 36 36 37 39 39 38 40 42 42 45 46 46 36 44 44 33 33 31 30 22 24 27 27 25 22 17 15 15 18 16 16 24 26 22 25 22 19 20 23 23 21 21 20 18 17 16
37 37 36 36 36 37 39 39 39 40 42 43 41 39 44 43 22 19 26 23 22 23 27 26 25 25 22 19 16 18 19 27 28 28 23 23 21 15 16 20 25 21 18 19 19 19 16
35 35 36 36 36 35 37 39 40 38 39 43 42 34 39 38 35 31 27 24 23 26 25 25 24 24 23 21 20 18 22 28 29 30 30 27 22 18 12 14 16 13 18 18 18 19 17
35 35 35 35 35 35 36 37 39 38 39 43 39 31 34 31 29 30 27 29 27 22 27 27 24 24 22 20 20 20 22 27 33 33 31 29 22 22 21 20 19 18 17 17 18 18 14
34 34 34 34 35 35 35 35 36 38 40 41 38 37 36 33 33 32 31 25 23 23 22 23 25 24 25 22 19 17 20 22 23 33 31 28 22 22 18 18 19 18 19 19 18 18 19
34 34 33 33 33 33 34 34 36 37 39 37 37 38 35 32 30 29 29 29 30 32 28 23 23 24 24 24 26 26 24 24 25 26 28 26 24 22 15 19 19 15 18 19 20 18 17
33 33 33 33 33 33 33 33 33 36 37 38 38 37 31 23 26 25 28 29 31 32 32 33 32 25 27 29 28 27 26 26 26 24 26 24 23 22 19 19 13 19 21 20 20 20 19
33 33 33 33 33 32 32 33 34 34 36 38 38 36 31 24 24 24 24 24 25 26 28 32 33 32 30 28 25 21 24 24 25 26 26 26 22 19 16 18 18 18 20 20 19 19 21
34 34 33 33 32 32 32 33 34 33 33 35 37 38 36 29 22 26 27 31 28 29 28 27 27 32 30 27 23 20 15 18 20 25 28 27 26 22 20 17 15 18 21 23 22 17 20
35 34 34 33 33 32 32 32 34 34 34 35 36 39 35 28 28 28 26 26 27 27 28 29 35 35 31 30 28 20 16 17 14 20 24 25 24 21 20 20 20 20 22 23 17 19 22
35 34 35 32 33 32 32 32 32 33 34 35 35 38 36 31 30 29 27 26 29 29 25 26 26 30 32 30 26 24 20 17 15 20 24 23 22 21 21 20 18 23 22 18 22 24 23
34 33 34 33 32 32 32 32 32 32 33 34 33 36 37 34 32 34 34 33 34 32 29 28 28 27 32 32 31 29 21 19 15 13 24 20 23 22 21 21 24 23 24 24 26 25 25
Wind_Speed
14 14 15 16 16 17 17 17 17 18 19 19 19 18 17 16 14 14 15 15 15 15 14 14 12 11 9 8 4 8 7 8 11 8 7 9 7 7 11 5 9 13 15 11 16 16 11
14 14 15 16 16 17 17 18 18 18 19 21 21 19 17 17 16 16 16 15 15 15 15 14 10 7 5 9 2 7 7 5 9 9 9 7 7 9 9 8 6 3 9 6 10 16 20
14 15 15 16 16 17 18 18 19 19 20 21 22 21 18 16 16 16 16 16 16 15 15 14 7 3 7 4 1 1 2 1 3 5 5 5 8 6 7 7 8 7 4 6 5 17 17
14 15 16 16 17 17 18 19 19 20 21 22 24 22 19 17 17 17 17 18 18 15 14 10 5 5 6 3 2 3 1 3 2 2 4 4 4 6 4 10 5 5 1 6 13 25 24
14 15 16 17 17 18 19 19 19 20 21 22 23 22 20 20 18 17 17 19 19 15 8 4 4 4 4 2 3 1 1 5 4 2 2 5 4 4 3 4 2 6 4 12 10 10 20
14 15 15 16 17 18 19 19 20 21 22 23 23 23 22 20 18 18 19 15 5 2 4 6 8 3 4 4 1 2 2 3 4 4 4 3 5 5 10 1 4 2 8 5 9 6 17
14 15 15 16 17 18 19 20 21 22 24 24 24 24 23 22 19 17 11 3 2 1 5 6 5 6 4 2 3 6 1 6 10 6 2 3 5 10 10 9 12 12 5 12 6 12 7
14 15 15 17 18 18 20 21 23 24 25 26 26 26 25 21 20 17 6 4 3 1 8 5 4 6 2 2 3 8 3 4 8 14 2 0 7 7 9 11 12 11 9 13 9 8 12
13 15 15 16 18 19 19 21 23 26 26 26 28 28 27 24 18 6 7 3 2 4 4 3 2 5 1 3 4 2 6 5 8 12 11 7 5 5 6 9 13 10 10 16 13 7 12
10 11 13 15 16 17 18 19 21 24 26 27 28 28 29 27 4 3 2 4 3 3 2 4 3 3 3 3 4 2 4 2 4 5 9 8 4 4 6 9 13 11 8 15 9 9 7
14 15 16 17 18 18 18 18 20 22 24 27 28 29 25 11 7 4 4 4 5 2 4 2 3 4 2 4 6 5 1 4 6 11 3 6 4 7 8 6 6 7 13 14 12 12 12
17 19 20 22 23 23 24 25 22 21 24 26 27 30 22 2 4 2 4 6 3 2 3 1 2 3 5 9 5 5 4 4 7 6 10 16 2 3 6 5 6 8 13 13 11 7 6
19 19 20 21 24 23 24 26 27 27 26 28 29 28 13 7 4 5 5 3 4 3 1 2 3 2 7 6 4 5 6 7 5 5 6 6 13 5 2 7 10 5 5 5 4 4 6
18 19 19 20 21 22 23 25 27 29 29 28 31 32 5 6 5 3 2 2 2 2 4 1 3 8 5 4 5 3 5 11 4 4 8 5 3 9 10 4 5 7 6 4 6 5 10
18 18 19 20 21 22 24 25 27 27 31 31 27 4 4 6 2 2 1 4 5 3 1 3 6 3 5 6 3 5 8 7 2 2 4 4 2 1 5 3 1 1 6 4 4 9 5
18 18 19 21 22 24 25 26 27 28 31 33 13 6 5 7 3 3 2 7 6 3 3 2 4 4 4 1 3 6 4 4 4 1 1 2 7 4 3 3 10 8 8 3 3 5 6
16 17 19 21 23 24 25 27 28 30 32 30 4 7 2 4 2 4 6 8 5 5 7 7 5 4 10 4 4 4 5 4 4 6 3 5 4 3 1 7 5 5 4 6 3 6 4
15 16 17 18 20 23 24 27 28 30 31 15 6 6 3 3 3 6 8 5 0 5 6 7 5 7 6 3 5 7 7 6 9 5 4 3 4 8 10 5 3 2 4 2 3 5 6
16 17 19 20 20 21 23 25 27 27 28 11 10 8 3 2 8 14 12 7 5 7 9 6 6 11 4 4 6 12 5 5 8 10 6 6 4 8 5 1 1 4 6 9 6 3 12
16 17 19 19 20 21 23 24 25 27 27 11 5 7 3 3 8 7 12 16 9 5 10 6 5 6 6 7 12 7 6 6 9 6 6 5 5 9 9 6 3 8 7 9 9 6 6
16 17 16 17 19 19 21 24 25 27 29 8 3 4 7 8 12 16 16 17 21 8 5 3 6 13 9 6 7 11 10 5 8 6 4 5 8 10 16 19 17 18 18 17 18 20 9
15 16 16 19 19 20 18 22 23 25 29 4 7 7 10 12 17 23 20 13 19 19 15 9 13 15 18 15 12 6 8 10 8 10 9 5 6 4 11 8 7 15 21 20 21 20 22
15 17 18 19 19 20 20 18 21 21 18 6 6 4 5 7 12 16 16 22 26 28 19 14 14 17 16 17 16 20 7 4 2 11 14 10 5 3 7 2 8 14 9 16 9 8 11
16 16 17 18 19 20 20 19 17 18 17 7 7 5 6 18 16 17 22 25 26 27 27 30 27 14 6 9 11 4 7 9 9 15 10 8 10 3 7 6 7 6 4 3 8 10 13
17 18 19 19 19 20 20 20 17 16 16 12 9 6 5 16 16 21 22 21 28 30 32 28 27 27 6 5 10 12 6 4 13 13 18 12 11 5 5 8 9 6 8 9 9 6 12
18 18 20 20 21 21 21 22 21 19 20 14 12 11 10 13 16 15 18 9 20 22 28 35 32 27 10 8 15 21 12 8 6 3 4 6 8 7 8 6 9 6 10 6 6 7 10
21 22 21 22 23 22 22 22 22 22 21 15 15 13 11 18 24 23 22 21 11 17 16 14 9 11 13 14 12 25 29 13 23 14 8 7 7 27 17 10 10 7 15 9 5 5 11
23 24 23 24 24 24 24 24 24 24 23 21 16 13 14 14 26 23 31 29 19 12 19 15 20 6 10 11 8 13 15 20 27 16 15 19 19 13 11 11 18 15 12 12 8 9 14
25 25 26 26 26 26 26 26 26 27 26 24 22 14 15 18 19 24 31 29 26 24 25 14 13 18 7 6 4 8 18 13 20 29 12 19 13 12 21 15 6 27 5 9 10 10 10
Wind_Direction
36 31 29 26 20 18 16 15 12 6 2 359 355 348 338 330 321 316 312 312 310 311 314 316 321 322 329 301 25 21 348 353 315 328 315 323 300 318 268 277 260 240 267 296 278 289 303
34 30 27 23 20 17 15 12 10 6 2 356 352 348 339 329 323 318 312 308 306 307 310 310 311 312 267 326 356 22 3 341 355 334 334 354 346 329 298 283 267 296 268 271 335 304 291
34 30 28 25 20 16 12 12 7 4 0 357 351 346 339 331 324 319 315 308 304 303 304 304 287 251 271 285 44 337 12 6 329 330 336 23 2 305 331 261 297 281 280 237 271 284 268
35 29 26 24 20 15 12 9 6 1 0 356 352 347 340 331 325 323 317 308 300 296 297 287 229 240 276 128 333 263 324 266 170 236 314 328 309 295 256 330 283 223 242 242 213 217 250
28 28 22 19 16 13 10 7 2 358 356 354 352 349 339 330 322 318 314 305 297 285 259 213 209 212 276 170 220 67 282 331 305 205 252 291 308 262 225 258 285 225 237 221 270 238 221
25 23 19 16 14 11 7 4 357 354 352 349 349 346 339 332 323 316 310 302 317 163 206 208 269 256 206 316 353 271 224 306 312 307 253 228 245 304 282 310 278 279 233 268 242 301 208
24 18 17 13 14 10 6 1 358 355 350 345 345 342 340 334 325 318 325 274 298 192 224 246 311 275 310 82 189 200 197 285 254 239 274 177 286 282 301 275 259 318 319 298 247 260 208
31 25 23 18 14 12 8 3 358 355 352 346 343 343 338 335 329 316 293 34 64 244 309 236 259 275 278 359 284 187 138 262 303 293 193 221 260 286 305 307 290 287 302 291 289 279 203
30 19 11 8 5 3 2 358 356 350 349 348 344 342 338 332 326 325 57 50 338 309 264 193 212 277 9 193 278 148 183 292 277 298 317 287 303 280 258 293 293 264 277 285 299 259 255
8 360 355 355 353 353 353 353 351 349 345 344 342 342 335 331 329 339 70 352 309 308 318 198 194 153 186 259 267 116 205 288 286 288 328 288 108 295 293 290 290 285 303 318 292 307 253
357 356 350 347 347 347 344 343 346 346 343 340 339 339 335 340 315 321 344 325 309 260 348 174 158 134 161 229 330 199 183 193 251 289 295 274 262 249 262 260 311 233 258 290 281 279 307
29 23 15 8 5 6 4 357 344 342 340 339 338 336 334 307 256 17 324 309 299 332 320 258 185 232 260 202 225 148 223 239 265 290 243 250 125 251 287 307 207 286 300 262 242 262 264
29 23 18 13 7 5 5 2 359 352 342 337 336 331 319 307 323 344 321 265 356 264 134 233 257 281 307 251 256 195 259 240 258 318 320 279 217 178 216 265 206 219 0 312 241 210 262
19 15 12 7 4 0 360 356 356 353 350 335 331 320 253 268 328 339 269 274 265 250 260 168 266 283 237 9 226 221 270 266 140 226 284 286 275 188 170 237 317 215 162 284 334 323 290
12 10 9 8 5 0 358 358 354 350 345 338 325 308 252 156 217 255 255 270 248 235 216 285 295 277 214 182 229 295 228 249 65 201 278 321 282 167 210 277 267 29 219 211 256 280 273
19 17 12 8 3 2 1 359 359 357 346 335 325 284 237 132 181 211 226 244 250 193 169 188 258 215 271 129 216 209 272 112 165 215 317 320 291 201 149 234 230 216 326 305 241 305 306
18 13 12 10 8 5 4 2 359 358 350 333 264 295 133 137 192 231 226 234 269 192 195 204 254 263 243 268 225 256 258 164 175 165 230 308 253 249 160 215 185 186 247 219 258 272 283
17 14 12 10 10 5 1 3 3 2 358 2 316 271 140 180 240 224 239 224 321 213 217 252 264 255 248 230 251 232 237 188 149 162 197 158 300 270 249 108 67 251 256 264 255 299 287
10 13 12 7 9 3 4 3 1 1 5 336 321 285 125 263 247 241 243 253 236 214 209 212 240 229 216 235 254 231 240 141 161 178 185 153 239 300 167 112 147 245 232 225 286 312 256
3 3 1 360 3 7 4 0 0 356 354 347 304 310 189 205 284 296 300 288 247 210 259 237 260 208 206 246 234 276 240 192 183 224 154 154 225 226 245 282 282 271 246 218 218 230 254
356 352 352 352 354 1 3 0 359 355 347 329 251 275 8 301 316 327 314 297 301 290 216 276 269 224 209 247 234 224 241 207 191 191 214 206 231 230 253 266 272 265 260 262 222 228 252
347 345 345 347 350 352 358 357 357 355 348 334 328 350 354 306 309 309 303 287 296 296 292 268 232 266 237 244 231 297 229 211 215 174 189 218 269 224 282 246 232 261 256 245 251 255 246
340 341 341 341 342 344 347 351 352 358 3 347 354 348 317 282 303 305 288 293 300 316 301 290 280 325 285 278 270 283 279 267 206 180 194 180 224 239 267 189 315 285 260 214 212 226 231
332 330 332 333 334 335 338 339 347 346 351 332 307 300 294 281 278 281 298 306 302 302 301 300 310 302 319 312 298 293 260 249 239 238 214 200 202 205 276 303 254 235 158 189 224 253 231
321 323 322 324 326 327 328 327 330 329 329 322 307 293 265 277 278 281 279 284 292 294 294 295 290 287 320 301 298 273 222 255 239 225 209 214 196 222 222 230 289 253 209 176 182 214 224
310 314 316 318 319 321 324 323 321 319 316 315 302 286 272 284 271 290 286 290 303 284 280 277 282 275 229 255 252 245 245 231 230 226 340 221 234 213 192 223 233 239 175 149 148 266 196
309 310 312 315 313 313 311 312 312 309 307 299 293 279 271 275 276 258 263 283 281 283 288 307 340 321 218 229 243 242 246 255 245 212 179 176 204 214 216 234 272 227 151 149 176 234 171
306 306 306 305 304 306 307 306 306 303 299 295 287 275 266 271 273 268 267 269 263 255 267 291 320 279 216 218 234 231 252 231 235 220 178 183 176 193 202 217 248 153 136 190 174 151 167
299 301 301 302 301 299 298 299 298 298 296 293 286 282 276 264 270 289 279 272 265 268 266 252 248 280 293 283 317 302 245 258 251 245 192 219 201 197 193 210 186 174 202 199 165 153 170